Regional Weather Roundup
Issued by NWS

Home | Current Version | Previous Version | Graphics & Text | Print | Product List | Glossary On
Versions: 1 2 3 4 5 6 7 8 9 10 11 12 13 14 15 16 17 18 19 20 21 22 23 24 25 26 27 28 29 30 31 32 33 34 35 36 37 38 39 40 41 42 43 44 45 46 47 48 49 50
000
ASUS45 KTFX 050610
RWRMT
MONTANA REGIONAL WEATHER ROUNDUP
NATIONAL WEATHER SERVICE GREAT FALLS MT
1100 PM MST SUN DEC 04 2016

NOTE: "FAIR" INDICATES FEW OR NO CLOUDS BELOW 12000 FEET WITH NO
SIGNIFICANT WEATHER AND/OR OBSTRUCTIONS TO VISIBILITY.

MTZ001>007-043-050700-
WEST OF THE DIVIDE

CITY           SKY/WX    TMP DP  RH WIND       PRES   REMARKS
KALISPELL      LGT SNOW  26  23  88 N13       29.71R VSB 3/4 WCI  15
MISSOULA       MOCLDY    25  22  88 SE7       29.79R WCI  17
BUTTE          CLOUDY    20  13  74 NW10      29.64S WCI   9
MULLAN PASS    LGT SNOW  16  13  88 NW10G23   29.66R VSB 3/4 WCI   4
ANACONDA         N/A     25   7  46 SW12G24   29.69R WCI  14
DEER LODGE       N/A     21  18  86 W9        29.71R WCI  11
EUREKA           N/A     27  25  93 SW6       29.76R VSB 1/4 WCI  20
HAMILTON         N/A     28  12  50 CALM      29.78S
LIBBY            N/A     27  25  93 SE5       29.73R
PLAINS           N/A     27  22  81 NE2       29.79R
RONAN            N/A     30  22  72 CALM      29.79R
$$

MTZ008-052>055-050700-
SOUTHWEST MONTANA

CITY           SKY/WX    TMP DP  RH WIND       PRES   REMARKS
BOZEMAN        CLOUDY    31  16  54 W9        29.63R WCI  23
DILLON         CLOUDY    26  12  55 NW16G23   29.65R WCI  14
W YELLOWSTONE  CLOUDY    27  25  93 SW14      29.56S WCI  15
ENNIS          CLOUDY    28  14  54 NW10G23   29.67R WCI  19
THREE FORKS      N/A     31  31 100 NW5       29.68R
TWIN BRIDGES     N/A     28   7  41 W10       29.70R WCI  19
$$

MTZ009-010-012-014-046-048-049-054-050700-
EAST SLOPES AND CENTRAL MONTANA

CITY           SKY/WX    TMP DP  RH WIND       PRES   REMARKS
CUT BANK       CLOUDY    18  15  88 N14       29.73R WCI   4
GREAT FALLS    FLURRIES  21  16  81 N10       29.72R WCI  10
MALMSTROM AFB  FLURRIES  21  18  86 N12G20    29.73R WCI   9
HELENA         CLOUDY    28  18  66 W12       29.67R WCI  18
AUGUSTA        FLURRIES  18  17  95 NE14      29.68R WCI   4
BOWMANS CRNR   LGT SNOW  18  17  94 NE12      29.68R WCI   6
CHOTEAU          N/A     21  19  93 N10       29.74R FOG     WCI  10
CONRAD           N/A     20  19  96 NW9       29.77R WCI   9
FAIRFIELD      FLURRIES  19  15  84 N9        29.71R WCI   8
POWER          FLURRIES  19  16  88 N15       29.70R WCI   5
RAYNESFORD     LGT SNOW  21  19  91 N6        29.70R WCI  13
ULM            SNOWSHWR  22  18  85 N15       29.73R WCI   9
$$

MTZ011-013-016-021-045-047-050-051-050700-
NORTH CENTRAL MONTANA

CITY           SKY/WX    TMP DP  RH WIND       PRES   REMARKS
HAVRE          FLURRIES  24  20  84 NW14      29.69R WCI  12
LEWISTOWN      LGT SNOW  22  19  89 NW16G29   29.61R FOG     WCI   8
N BAR RANCH    MOCLDY    27  19  74 NW29G36   29.55F WCI  11
CHINOOK          N/A     25  21  86 NW13      29.68R VSB 1   WCI  13
DENTON         FLURRIES  22  20  90 NW16G40   29.62R WCI   9
GEYSER         FLURRIES  22  18  87 W15G21    29.65R WCI   8
GRASS RANGE    MOCLDY    26  22  84 W22G29    29.54R WCI  12
JUDITH GAP     FLURRIES  21  18  86 N20G26    29.58R WCI   6
ROY            MOCLDY    24  22  93 MISG      29.56R
STANFORD       FLURRIES  20  17  90 NW25G32   29.62R WCI   2
WINIFRED       MOCLDY    22  21  93 MISG      29.62R
$$

MTZ017>020-022>027-061-062-050700-
NORTHEAST MONTANA

CITY           SKY/WX    TMP DP  RH WIND       PRES   REMARKS
GLASGOW        MOCLDY    31  30  96 W8        29.50R WCI  23
JORDAN           N/A     27  24  89 W7        29.52S WCI  19
SIDNEY         MIX PCPN  29  24  82 S5        29.48F
WOLF POINT     LGT SNOW  31  29  92 SW5       29.51R VSB 3/4
PLENTYWOOD       N/A     27  27 100 SE6       29.47F VSB 3/4 WCI  20
POPLAR           N/A     28  25  86 N7        29.51R WCI  21
SCOBEY           N/A     28  17  63 CALM      29.50R
$$

MTZ028>42-056>058-050700-
SOUTHCENTRAL AND SOUTHEAST MONTANA

CITY           SKY/WX    TMP DP  RH WIND       PRES   REMARKS
BAKER          FLURRIES  27  22  81 NW5       29.53R
BILLINGS       CLOUDY    33  24  69 N3        29.59R
LIVINGSTON     LGT SNOW  29  22  75 SW6       29.59R WCI  23
MILES CITY     MOCLDY    35  30  82 W3        29.52S
BIG TIMBER     CLOUDY    32  10  40 W20       29.60R WCI  20
FORSYTH          N/A     36  34  93 W8        29.56R WCI  29
HARLOWTON      CLOUDY    27  19  70 NW15G23   29.57R WCI  15
LAUREL           N/A     33  14  45 CALM      29.62R
ROUNDUP          N/A     31  17  56 W15       29.53R WCI  20
$$

REGIONAL REPORTS...DAKOTAS

CITY           SKY/WX    TMP DP  RH WIND       PRES   REMARKS
WILLISTON      CLOUDY    25  21  85 CALM      29.50F
MINOT          CLOUDY    15  12  88 CALM      29.59R
DICKINSON      CLOUDY    25  21  85 E8        29.50F WCI  16
BEACH          MOCLDY    30  27  86 S9        29.53R WCI  22
CROSBY         CLOUDY    25  23  93 E10       29.54F WCI  15
TIOGA            N/A     27  27 100 SE14      29.51F WCI  15
WATFORD CITY   MOCLDY    27  23  86 E6        29.51F WCI  20
BISMARCK       CLOUDY    18  16  92 NE8       29.62F WCI   8
GRAND FORKS    CLOUDY    28  24  85 NW7       29.69R WCI  21
FARGO          CLEAR     24  20  84 W6        29.71R WCI  17
BUFFALO SD       N/A     31  21  66 S6        29.45S WCI  25
RAPID CITY     MOCLDY    36  20  52 SW7       29.51F WCI  30
$$

REGIONAL REPORTS...WYOMING/IDAHO/WASHINGTON

CITY           SKY/WX    TMP DP  RH WIND       PRES   REMARKS
GILLETTE       CLOUDY    35  23  61 SW12      29.50S WCI  27
SHERIDAN       LGT SNOW  32  29  88 NW17      29.57R FOG     WCI  21
BUFFALO WY     CLOUDY    33  19  56 W3        29.50R
CODY           LGT SNOW  30  28  93 N14       29.54R FOG     WCI  20
YELLOWSTONE LA   N/A     24  20  84 W10G17    29.57R WCI  14
IDAHO FALLS    CLOUDY    34  31  88 SW22G35   29.66S WCI  22
SALMON         PTCLDY    28  10  47 NW13G20   29.78R WCI  18
BOISE          CLEAR     30  19  63 W13       29.98R WCI  20
SPOKANE        CLEAR     29  11  47 W16       29.92R WCI  17
$$

REGIONAL REPORTS...ALBERTA

CITY           SKY/WX    TMP DP  RH WIND       PRES   REMARKS
EDMONTON       CLOUDY     5  -2  72 NW18G24   29.91R WCI -15
CALGARY        MOCLDY    12   5  73 N16       29.78R WCI  -4
LETHBRIDGE     CLOUDY    21  14  73 NW8       29.78R WCI  12
MEDICINE HAT   CLOUDY    23  14  68 NW14      29.74R WCI  11
WATERTON GATE    N/A     18  14  86 SE2         N/A
CARDSTON         N/A     18  16  93 NW5         N/A
MILK RIVER       N/A     19  14  79 N13         N/A  WCI   7
ONEFOUR          N/A     19  16  86 NW18        N/A  WCI   4
$$

REGIONAL REPORTS...SASKATCHEWAN

CITY           SKY/WX    TMP DP  RH WIND       PRES   REMARKS
SWIFT CURRENT  CLOUDY    19  16  86 NW17      29.58R WCI   4
REGINA         CLOUDY    21  18  86 NE2       29.56R
SASKATOON      MOCLDY    18  14  86 W7        29.64R WCI   8
CYPRESS HILLS    N/A     14  12  92 N14G24      N/A  WCI  -1
VAL MARIE        N/A     23  21  93 N17G26      N/A  WCI   9
ROCKGLEN         N/A     28  27  93 N8          N/A  WCI  20
ASSINIBOIA       N/A      7   3  85 NW18        N/A  WCI -12
$$



USA.gov is the U.S. government's official web portal to all federal, state and local government web resources and services.